FW9877 Weather Reports


time (UTC)temp
C
wind
direction
speed
KPH
gust
KPH
rain 1hr
cm
rain 24hr
cm
rain mn
cm
humidity
%
barometer
mb
20260510104532 10 360 3.2 8.0 0.00 0.99 0.00 96 1011.2
20260510103029 10 360 1.6 8.0 0.00 0.99 0.00 96 1011.0
20260510101534 10 0 1.6 9.7 0.00 0.99 0.00 96 1010.6
20260510100038 10 360 1.6 8.0 0.00 0.99 0.00 96 1010.3
20260510094535 10 360 1.6 9.7 0.00 1.09 0.00 95 1010.2
20260510093030 10 360 0.0 9.7 0.00 1.09 0.00 95 1010.1
20260510091532 10 0 0.0 3.2 0.00 1.09 0.00 95 1009.8
20260510090030 10 0 0.0 4.8 0.00 1.09 0.00 95 1009.7
20260510084529 10 360 0.0 4.8 0.00 1.12 0.00 95 1009.8
20260510083031 10 360 0.0 4.8 0.00 1.12 0.00 95 1009.9
20260510081534 10 360 0.0 9.7 0.00 1.12 0.00 95 1009.8
20260510080032 10 360 1.6 12.9 0.00 1.12 0.00 95 1009.5
20260510074536 10 360 1.6 9.7 0.00 1.12 0.00 95 1010.2
20260510073030 10 0 0.0 3.2 0.00 1.12 0.00 95 1010.4
20260510071536 10 360 0.0 3.2 0.00 1.12 0.00 95 1010.7
20260510070037 10 0 0.0 3.2 0.00 1.12 0.00 95 1010.8
20260510064531 10 0 0.0 4.8 0.00 1.12 0.00 95 1010.8
20260510063030 10 0 0.0 3.2 0.00 1.12 0.00 95 1010.5
20260510061535 10 0 0.0 3.2 0.00 1.12 0.00 95 1010.3
20260510060033 10 360 1.6 6.4 0.00 1.12 0.00 95 1009.8
20260510054533 10 0 1.6 8.0 0.00 1.12 0.00 94 1009.9
20260510053031 10 360 1.6 8.0 0.00 1.12 0.00 94 1010.0
20260510051535 10 0 0.0 12.9 0.00 1.12 0.00 93 1010.1
20260510050032 10 0 0.0 6.4 0.00 1.12 0.00 94 1010.0
20260510044530 10 360 0.0 6.4 0.00 1.12 0.00 94 1010.0
20260510043034 10 360 0.0 4.8 0.00 1.12 0.00 93 1009.9
20260510041545 10 0 0.0 6.4 0.00 1.12 0.00 93 1009.9
20260510040034 10 360 0.0 6.4 0.00 1.12 0.00 93 1010.0
20260510034530 10 360 0.0 8.0 0.00 1.12 1.12 92 1009.9
20260510033032 10 0 0.0 6.4 0.00 1.12 1.12 92 1009.9
20260510031534 11 0 1.6 6.4 0.00 1.12 1.12 91 1009.5
20260510030035 11 0 0.0 3.2 0.00 1.12 1.12 92 1009.9
20260510024532 11 0 0.0 6.4 0.00 1.12 1.12 91 1010.0
20260510023033 11 0 0.0 8.0 0.00 1.12 1.12 91 1009.9
20260510021536 11 360 1.6 12.9 0.00 1.12 1.12 91 1009.9
20260510020033 11 360 0.0 8.0 0.00 1.12 1.12 91 1010.1
20260510014533 11 360 1.6 8.0 0.00 1.12 1.12 91 1010.0
20260510013037 11 360 3.2 12.9 0.00 1.12 1.12 91 1009.9
20260510011530 11 360 1.6 8.0 0.00 1.12 1.12 92 1009.8
20260510010030 11 0 0.0 8.0 0.00 1.12 1.12 92 1009.9
20260510004532 11 0 0.0 4.8 0.00 1.12 1.12 92 1009.9
20260510003040 11 0 1.6 8.0 0.00 1.12 1.12 92 1009.6
20260510001539 11 0 0.0 6.4 0.00 1.12 1.12 92 1009.4
20260510000031 11 360 0.0 4.8 0.00 1.12 1.12 92 1009.2
20260509234537 11 0 0.0 4.8 0.00 1.12 1.12 92 1009.0
20260509233032 11 360 1.6 14.5 0.00 1.12 1.12 92 1008.7
20260509231531 12 360 4.8 14.5 0.00 1.12 1.12 93 1008.7
20260509230032 12 360 3.2 14.5 0.00 1.12 1.12 93 1008.6
20260509224532 12 0 1.6 12.9 0.00 1.12 1.12 93 1008.9
20260509223030 12 360 1.6 14.5 0.00 1.12 1.12 94 1008.9
20260509221530 12 360 1.6 8.0 0.00 1.12 1.12 94 1009.0
20260509220034 12 360 1.6 9.7 0.00 1.12 1.12 95 1009.0
20260509214539 12 0 1.6 8.0 0.00 1.12 1.12 95 1008.9
20260509213030 12 360 0.0 8.0 0.00 1.12 1.12 95 1009.0
20260509211531 12 360 1.6 12.9 0.00 1.12 1.12 96 1009.1
20260509210034 11 0 3.2 9.7 0.00 1.12 1.12 96 1009.3
20260509204542 11 360 1.6 14.5 0.00 1.12 1.12 96 1009.5
20260509203035 11 360 1.6 16.1 0.00 1.12 1.12 96 1009.6
20260509201532 11 360 3.2 9.7 0.00 1.12 1.12 97 1009.7
20260509200038 11 360 3.2 12.9 0.03 1.12 1.12 97 1009.8
20260509194539 11 360 3.2 8.0 0.05 1.12 1.12 97 1010.1
20260509193038 11 360 0.0 8.0 0.08 1.12 1.12 97 1010.1
20260509191533 10 360 1.6 4.8 0.13 1.12 1.12 96 1010.3
20260509190032 10 0 0.0 4.8 0.13 1.09 1.09 96 1010.6
20260509184536 10 360 0.0 6.4 0.13 1.07 1.07 96 1010.6
20260509183031 10 360 1.6 16.1 0.15 1.04 1.04 96 1010.5
20260509181529 10 360 3.2 12.9 0.13 0.99 0.99 96 1010.4
20260509180032 10 360 3.2 14.5 0.13 0.97 0.97 96 1010.4
20260509174533 9 360 3.2 12.9 0.10 0.94 0.94 96 1010.6
20260509173035 9 0 1.6 6.4 0.08 0.89 0.89 96 1010.9
20260509171533 9 0 0.0 6.4 0.08 0.86 0.86 96 1011.0
20260509170031 8 360 1.6 14.5 0.08 0.84 0.84 96 1011.1
20260509164534 8 0 1.6 9.7 0.13 0.84 0.84 96 1011.2
20260509163032 8 0 0.0 6.4 0.13 0.81 0.81 96 1011.5
20260509161531 8 360 1.6 8.0 0.13 0.79 0.79 96 1011.7
20260509160032 8 0 0.0 6.4 0.15 0.76 0.76 96 1012.0
20260509154535 8 360 1.6 8.0 0.15 0.71 0.71 96 1012.1
20260509153034 7 0 1.6 8.0 0.18 0.69 0.69 96 1012.3
20260509151534 7 360 0.0 8.0 0.20 0.66 0.66 96 1012.6
20260509150030 7 360 1.6 8.0 0.23 0.61 0.61 96 1012.7
20260509144534 7 0 0.0 6.4 0.20 0.56 0.56 96 1012.7
20260509143039 7 360 3.2 9.7 0.20 0.51 0.51 96 1012.7
20260509141539 7 360 0.0 1.6 0.15 0.46 0.46 96 1012.5
20260509140053 7 0 0.0 3.2 0.08 0.38 0.38 95 1012.5
20260509134533 7 0 0.0 4.8 0.05 0.33 0.33 95 1012.4
20260509133030 7 0 0.0 3.2 0.03 0.30 0.30 95 1012.3
20260509131539 6 360 0.0 3.2 0.05 0.30 0.30 95 1012.3
20260509130035 6 0 0.0 1.6 0.08 0.30 0.30 95 1012.4
20260509124537 6 0 0.0 1.6 0.05 0.28 0.28 95 1012.5
20260509123034 6 0 0.0 1.6 0.08 0.28 0.28 95 1012.7
20260509121547 6 0 0.0 3.2 0.08 0.25 0.25 95 1012.8
20260509120035 6 0 0.0 3.2 0.05 0.23 0.23 95 1012.9
20260509114533 6 0 1.6 8.0 0.05 0.23 0.23 95 1012.7
20260509113033 6 0 0.0 3.2 0.05 0.20 0.20 95 1012.8
20260509111532 6 360 0.0 8.0 0.03 0.18 0.18 95 1012.9
20260509110032 6 360 0.0 8.0 0.05 0.18 0.18 94 1012.9